DW9776 Weather Reports


Display with metric or nautical units.
time (UTC)temp
F
wind
direction
speed
MPH
gust
MPH
rain 1hr
in
rain 24hr
in
rain mn
in
humidity
%
barometer
mb
20260506061635 34 46 1.0 2.0 0.00 0.00 0.00 93 1020.0
20260506061137 34 63 0.0 2.0 0.00 0.00 0.00 93 1020.0
20260506060632 34 89 0.0 2.0 0.00 0.00 0.00 93 1019.9
20260506060128 33 89 0.0 2.0 0.00 0.00 0.00 93 1020.1
20260506051053 31 89 1.0 2.0 0.00 0.00 0.00 92 1019.9
20260506050601 31 269 1.0 2.0 0.00 0.00 0.00 92 1019.9
20260506045046 31 108 1.0 2.0 0.00 0.00 0.00 92 1019.9
20260506044541 31 295 0.0 1.0 0.00 0.00 0.00 92 1020.0
20260506044044 31 46 0.0 2.0 0.00 0.00 0.00 92 1020.0
20260506043539 31 105 1.0 2.0 0.00 0.00 0.00 92 1019.9
20260506043029 31 178 1.0 2.0 0.00 0.00 0.00 92 1019.9
20260506042749 31 46 1.0 2.0 0.00 0.00 0.00 92 1019.9
20260506042028 31 178 1.0 2.0 0.00 0.00 0.00 92 1020.0
20260506041747 31 152 1.0 2.0 0.00 0.00 0.00 92 1020.0
20260506041020 31 135 1.0 2.0 0.00 0.00 0.00 92 1020.0
20260506040516 32 89 1.0 2.0 0.00 0.00 0.00 92 1020.0
20260506040011 32 164 1.0 2.0 0.00 0.00 0.00 92 1020.0
20260506035512 31 206 1.0 3.0 0.00 0.00 0.00 92 1020.0
20260506035007 31 1 1.0 3.0 0.00 0.00 0.00 92 1019.9
20260506034726 32 124 1.0 3.0 0.00 0.00 0.00 91 1019.9
20260506034005 31 135 2.0 3.0 0.00 0.00 0.00 92 1019.9
20260506033459 31 145 2.0 3.0 0.00 0.00 0.00 91 1019.9
20260506032959 32 124 1.0 3.0 0.00 0.00 0.00 91 1019.9
20260506032500 32 135 2.0 3.0 0.00 0.00 0.00 91 1020.0
20260506031957 32 102 2.0 3.0 0.00 0.00 0.00 91 1020.1
20260506031453 32 108 1.0 3.0 0.00 0.00 0.00 91 1020.1
20260506030952 32 129 2.0 3.0 0.00 0.00 0.00 91 1020.1
20260506030712 32 89 1.0 2.0 0.00 0.00 0.00 91 1020.2
20260506030205 32 46 1.0 2.0 0.00 0.00 0.00 91 1020.2
20260506025443 32 117 1.0 2.0 0.00 0.00 0.00 91 1020.2
20260506024940 32 63 1.0 3.0 0.00 0.00 0.00 91 1020.2
20260506024700 33 160 2.0 3.0 0.00 0.00 0.00 91 1020.2
20260506023936 33 117 2.0 3.0 0.00 0.00 0.00 91 1020.3
20260506023652 33 108 1.0 3.0 0.00 0.00 0.00 91 1020.2
20260506022932 33 135 2.0 3.0 0.00 0.00 0.00 90 1020.2
20260506022654 33 135 2.0 2.0 0.00 0.00 0.00 90 1020.2
20260506022144 33 314 0.0 2.0 0.00 0.00 0.00 90 1020.2
20260506021423 33 46 1.0 2.0 0.00 0.00 0.00 90 1020.2
20260506020924 34 89 1.0 2.0 0.00 0.00 0.00 90 1020.3
20260506020419 34 121 1.0 2.0 0.00 0.00 0.00 90 1020.4
20260506020142 34 152 1.0 2.0 0.00 0.00 0.00 90 1020.4
20260506015640 34 135 0.0 2.0 0.00 0.00 0.00 90 1020.4
20260506014911 34 135 1.0 2.0 0.00 0.00 0.00 90 1020.3
20260506014413 34 89 0.0 1.0 0.00 0.00 0.00 90 1020.2
20260506013907 34 89 0.0 3.0 0.00 0.00 0.00 90 1020.3
20260506013408 35 89 2.0 3.0 0.00 0.00 0.00 90 1020.4
20260506012904 35 135 2.0 3.0 0.00 0.00 0.00 89 1020.4
20260506012359 35 206 1.0 3.0 0.00 0.00 0.00 89 1020.4
20260506011856 35 135 2.0 3.0 0.00 0.00 0.00 89 1020.4
20260506011350 35 160 1.0 2.0 0.00 0.00 0.00 89 1020.4
20260506010847 36 46 1.0 2.0 0.00 0.00 0.00 89 1020.4
20260506010341 36 178 1.0 2.0 0.00 0.00 0.00 89 1020.4
20260506005843 36 178 1.0 2.0 0.00 0.00 0.00 89 1020.4
20260506005338 36 1 1.0 1.0 0.00 0.00 0.00 89 1020.3
20260506004838 36 46 0.0 2.0 0.00 0.00 0.00 88 1020.4
20260506004333 36 152 1.0 2.0 0.00 0.00 0.00 88 1020.3
20260506004057 36 135 1.0 2.0 0.00 0.00 0.00 88 1020.3
20260506003330 37 135 1.0 2.0 0.00 0.00 0.00 88 1020.2
20260506002825 37 89 1.0 2.0 0.00 0.00 0.00 88 1020.4
20260506002326 37 117 1.0 2.0 0.00 0.00 0.00 88 1020.3
20260506001816 37 142 1.0 2.0 0.00 0.00 0.00 87 1020.3
20260506001543 37 89 1.0 2.0 0.00 0.00 0.00 87 1020.4
20260506000813 37 89 1.0 2.0 0.00 0.00 0.00 87 1020.3
20260506000309 38 89 1.0 2.0 0.00 0.00 0.00 87 1020.4
20260505235804 38 1 0.0 1.0 0.00 0.00 0.00 87 1020.3
20260505235258 38 89 0.0 1.0 0.00 0.00 0.00 87 1020.4
20260505234754 38 1 0.0 3.0 0.00 0.00 0.00 86 1020.5
20260505234250 38 135 1.0 3.0 0.00 0.00 0.00 86 1020.4
20260505233745 39 135 1.0 2.0 0.00 0.00 0.00 86 1020.5
20260505233246 39 223 0.0 2.0 0.00 0.00 0.00 86 1020.5
20260505232741 39 127 1.0 2.0 0.00 0.00 0.00 86 1020.4
20260505232241 40 46 0.0 2.0 0.00 0.00 0.00 85 1020.6
20260505231737 40 135 0.0 2.0 0.00 0.00 0.00 85 1020.6
20260505231233 40 63 1.0 2.0 0.00 0.00 0.00 85 1020.6
20260505230947 40 56 1.0 2.0 0.00 0.00 0.00 84 1020.7
20260505230224 40 89 0.0 2.0 0.00 0.00 0.00 84 1020.6
20260505225725 40 117 1.0 1.0 0.00 0.00 0.00 84 1020.5
20260505225442 40 46 0.0 2.0 0.00 0.00 0.00 83 1020.6
20260505224720 41 46 0.0 2.0 0.00 0.00 0.00 83 1020.6
20260505224216 41 178 1.0 2.0 0.00 0.00 0.00 83 1020.7
20260505223712 41 135 1.0 2.0 0.00 0.00 0.00 82 1020.7
20260505223207 41 46 1.0 2.0 0.00 0.00 0.00 82 1020.6
20260505222707 41 35 1.0 3.0 0.00 0.00 0.00 82 1020.7
20260505222203 42 46 1.0 3.0 0.00 0.00 0.00 82 1020.7
20260505221705 42 58 1.0 3.0 0.00 0.00 0.00 82 1020.7
20260505221159 42 46 2.0 4.0 0.00 0.00 0.00 81 1020.8
20260505220918 42 51 2.0 4.0 0.00 0.00 0.00 80 1020.6
20260505220151 42 46 1.0 3.0 0.00 0.00 0.00 80 1020.6
20260505215646 42 53 2.0 4.0 0.00 0.00 0.00 80 1020.6
20260505215409 42 41 3.0 4.0 0.00 0.00 0.00 80 1020.5
20260505214913 42 28 1.0 4.0 0.00 0.00 0.00 80 1020.5
20260505214138 42 32 3.0 4.0 0.00 0.00 0.00 79 1020.6
20260505213633 42 39 2.0 4.0 0.00 0.00 0.00 79 1020.5
20260505213129 42 68 2.0 5.0 0.00 0.00 0.00 79 1020.6
20260505212631 42 46 2.0 5.0 0.00 0.00 0.00 79 1020.7
20260505212126 43 63 2.0 5.0 0.00 0.00 0.00 79 1020.6
20260505211847 43 56 3.0 5.0 0.00 0.00 0.00 79 1020.7
20260505211116 43 53 1.0 4.0 0.00 0.00 0.00 79 1020.6
20260505210836 43 28 1.0 4.0 0.00 0.00 0.00 78 1020.6
20260505210107 43 46 2.0 4.0 0.00 0.00 0.00 78 1020.5
20260505205608 43 28 2.0 5.0 0.00 0.00 0.00 78 1020.6
20260505205105 43 63 2.0 5.0 0.00 0.00 0.00 78 1020.6
20260505205053 43 49 4.0 5.0 0.00 0.00 0.00 77 1020.7
20260505204059 43 46 2.0 4.0 0.00 0.00 0.00 77 1020.6
20260505203826 43 58 3.0 6.0 0.00 0.00 0.00 77 1020.7
20260505203055 43 8 3.0 6.0 0.00 0.00 0.00 77 1020.7
20260505202557 43 63 2.0 4.0 0.00 0.00 0.00 77 1020.7
20260505202053 43 25 2.0 5.0 0.00 0.00 0.00 76 1020.7
20260505201546 44 53 2.0 6.0 0.00 0.00 0.00 77 1020.7
20260505201042 44 58 2.0 6.0 0.00 0.00 0.00 77 1020.6
20260505200538 44 25 2.0 5.0 0.00 0.00 0.00 76 1020.6
20260505200302 44 46 3.0 6.0 0.00 0.00 0.00 76 1020.4
20260505195530 44 54 4.0 7.0 0.00 0.00 0.00 75 1020.5
20260505195029 44 60 2.0 7.0 0.00 0.00 0.00 75 1020.5
20260505194526 44 47 3.0 6.0 0.00 0.00 0.00 75 1020.5
20260505194025 44 44 3.0 6.0 0.00 0.00 0.00 75 1020.6
20260505193522 44 46 3.0 7.0 0.00 0.00 0.00 75 1020.6
20260505193240 44 28 2.0 9.0 0.00 0.00 0.00 74 1020.5
20260505192517 44 18 4.0 10.0 0.00 0.00 0.00 74 1020.4
20260505192013 44 63 5.0 10.0 0.00 0.00 0.00 73 1020.2
20260505191509 44 18 5.0 13.0 0.00 0.00 0.00 73 1020.2
20260505191009 44 41 6.0 13.0 0.00 0.00 0.00 73 1020.2
20260505190504 45 15 6.0 11.0 0.00 0.00 0.00 73 1020.2
20260505190220 45 25 5.0 10.0 0.00 0.00 0.00 73 1020.2
20260505185500 45 14 6.0 10.0 0.00 0.00 0.00 73 1020.2
20260505185001 45 23 4.0 11.0 0.00 0.00 0.00 73 1020.2
20260505184456 45 6 6.0 13.0 0.00 0.00 0.00 73 1020.1
20260505184218 45 58 6.0 13.0 0.00 0.00 0.00 73 1020.2
20260505183715 45 6 6.0 11.0 0.00 0.00 0.00 73 1020.2
20260505182948 45 32 5.0 11.0 0.00 0.00 0.00 73 1020.2
20260505182444 45 350 6.0 12.0 0.00 0.00 0.00 73 1020.2
20260505182207 45 44 6.0 12.0 0.00 0.00 0.00 74 1020.0
20260505181445 45 349 4.0 13.0 0.00 0.00 0.00 74 1020.2
20260505180940 45 1 7.0 13.0 0.00 0.00 0.00 73 1020.1
20260505180701 45 21 6.0 16.0 0.00 0.00 0.00 74 1020.1
20260505175938 45 356 8.0 17.0 0.00 0.00 0.00 74 1020.0
20260505175437 46 13 9.0 17.0 0.00 0.00 0.00 76 1019.9
20260505174932 46 20 7.0 16.0 0.00 0.00 0.00 76 1020.0
20260505174433 46 1 6.0 12.0 0.00 0.00 0.00 77 1020.0
20260505173928 46 1 6.0 12.0 0.00 0.00 0.00 79 1020.0
20260505173645 46 23 4.0 12.0 0.00 0.00 0.00 79 1020.1
20260505172920 46 1 6.0 12.0 0.00 0.00 0.00 79 1020.2
20260505172646 46 11 7.0 13.0 0.00 0.00 0.00 79 1020.1
20260505171915 46 37 7.0 13.0 0.00 0.00 0.00 79 1020.1
20260505171633 46 4 6.0 13.0 0.00 0.00 0.00 78 1020.1
20260505170912 46 25 5.0 13.0 0.00 0.00 0.00 78 1020.2
20260505170412 46 1 5.0 14.0 0.00 0.00 0.00 78 1020.2
20260505170131 46 18 6.0 14.0 0.00 0.00 0.00 77 1020.1
20260505165409 46 1 6.0 13.0 0.00 0.00 0.00 77 1020.0
20260505165128 46 11 6.0 12.0 0.00 0.00 0.00 79 1020.1
20260505164405 46 21 6.0 13.0 0.00 0.00 0.00 78 1020.0
20260505163900 46 32 7.0 14.0 0.00 0.00 0.00 78 1020.0
20260505163401 46 21 8.0 14.0 0.00 0.00 0.00 78 1020.1
20260505162856 46 16 6.0 12.0 0.00 0.00 0.00 79 1020.0
20260505162352 46 11 6.0 14.0 0.00 0.00 0.00 79 1020.0
20260505161852 46 39 8.0 14.0 0.00 0.00 0.00 79 1020.1
20260505161348 46 6 6.0 12.0 0.00 0.00 0.00 79 1020.0
20260505160843 46 20 6.0 12.0 0.00 0.00 0.00 79 1020.0
20260505160339 46 4 6.0 12.0 0.00 0.00 0.00 79 1019.9
20260505153322 46 18 8.0 14.0 0.00 0.00 0.00 80 1019.9
20260505152819 46 18 7.0 14.0 0.00 0.00 0.00 81 1020.0
20260505152314 46 13 7.0 12.0 0.00 0.00 0.00 82 1019.9
20260505151813 46 350 5.0 9.0 0.00 0.00 0.00 83 1020.0
20260505151309 45 6 4.0 10.0 0.00 0.00 0.00 83 1019.9
20260505150809 46 25 5.0 12.0 0.00 0.00 0.00 82 1020.0
20260505150305 46 16 7.0 16.0 0.00 0.00 0.00 81 1020.1
20260505140241 47 4 6.0 13.0 0.00 0.00 0.00 80 1019.7
20260505130213 46 13 7.0 15.0 0.00 0.00 0.00 80 1019.6
20260505124709 47 333 10.0 17.0 0.00 0.00 0.00 80 1019.4
20260505124652 46 8 9.0 18.0 0.00 0.00 0.00 80 1019.4
20260505123705 47 6 10.0 18.0 0.00 0.00 0.00 81 1019.4
20260505123201 47 342 9.0 19.0 0.00 0.00 0.00 82 1019.2
20260505122701 47 23 9.0 19.0 0.00 0.00 0.00 81 1019.2
20260505122158 47 14 9.0 15.0 0.00 0.00 0.00 82 1019.1
20260505121654 47 13 10.0 17.0 0.00 0.00 0.00 83 1019.1
20260505121148 46 23 11.0 17.0 0.00 0.00 0.00 83 1019.0
20260505120644 46 8 8.0 16.0 0.00 0.00 0.00 84 1019.0
20260505120140 46 18 9.0 16.0 0.00 0.00 0.00 85 1019.0
20260505115637 46 1 7.0 14.0 0.00 0.00 0.00 85 1019.0
20260505115136 46 4 8.0 16.0 0.00 0.00 0.00 85 1019.1
20260505114632 46 54 7.0 16.0 0.00 0.00 0.00 85 1019.1
20260505114132 46 356 8.0 19.0 0.00 0.00 0.00 85 1019.0
20260505113629 46 4 11.0 20.0 0.00 0.00 0.00 83 1018.9
20260505113122 47 16 11.0 20.0 0.00 0.00 0.00 83 1018.9
20260505112623 47 348 8.0 18.0 0.00 0.00 0.00 83 1018.8
20260505112344 47 72 8.0 18.0 0.00 0.00 0.00 83 1018.8
20260505111614 47 37 9.0 18.0 0.00 0.00 0.00 83 1018.7
20260505111115 47 35 8.0 17.0 0.00 0.00 0.00 81 1018.6
20260505110627 48 37 10.0 17.0 0.00 0.00 0.00 79 1018.7
20260505110110 49 16 8.0 14.0 0.00 0.00 0.00 77 1018.6
20260505101550 50 13 6.0 13.0 0.00 0.00 0.00 76 1018.5
20260505101045 49 1 6.0 13.0 0.00 0.00 0.00 77 1018.5
20260505100546 49 37 5.0 14.0 0.00 0.00 0.00 80 1018.4
20260505100041 48 1 6.0 14.0 0.00 0.00 0.00 79 1018.4
20260505095537 47 8 6.0 11.0 0.00 0.00 0.00 80 1018.4
20260505095258 47 349 6.0 12.0 0.00 0.00 0.00 80 1018.4
20260505095020 47 20 7.0 12.0 0.00 0.00 0.00 81 1018.3
20260505094033 47 37 7.0 12.0 0.00 0.00 0.00 80 1018.3
20260505093530 47 18 6.0 13.0 0.00 0.00 0.00 79 1018.3
20260505093030 48 13 8.0 14.0 0.00 0.00 0.00 79 1018.3
20260505092525 48 44 6.0 15.0 0.00 0.00 0.00 79 1018.3
20260505092026 48 17 8.0 15.0 0.00 0.00 0.00 80 1018.2
20260505091522 48 30 7.0 13.0 0.00 0.00 0.00 80 1018.2
20260505091018 48 8 5.0 14.0 0.00 0.00 0.00 80 1018.1
20260505090513 48 1 8.0 15.0 0.00 0.00 0.00 80 1018.1
20260505090019 48 1 10.0 15.0 0.00 0.00 0.00 80 1018.1
20260505085508 48 354 5.0 12.0 0.00 0.00 0.00 82 1018.0
20260505085009 47 56 6.0 14.0 0.00 0.00 0.00 83 1018.1
20260505084949 47 18 7.0 14.0 0.00 0.00 0.00 83 1018.1
20260505084000 47 37 6.0 11.0 0.00 0.00 0.00 83 1017.9
20260505083501 47 334 7.0 11.0 0.00 0.00 0.00 83 1017.9
20260505082956 47 11 6.0 12.0 0.00 0.00 0.00 82 1018.0
20260505082456 47 18 6.0 22.0 0.00 0.00 0.00 82 1018.0
20260505081952 48 35 11.0 22.0 0.00 0.00 0.00 82 1017.8
20260505081453 48 321 8.0 16.0 0.00 0.00 0.00 83 1017.8
20260505080948 49 8 7.0 12.0 0.00 0.00 0.00 83 1017.7
20260505080444 49 84 6.0 13.0 0.00 0.00 0.00 83 1017.6
20260505075940 49 18 9.0 13.0 0.00 0.00 0.00 82 1017.6
20260505075435 49 20 5.0 10.0 0.00 0.00 0.00 83 1017.5
20260505074935 49 23 4.0 9.0 0.00 0.00 0.00 83 1017.4
20260505074431 48 6 6.0 9.0 0.00 0.00 0.00 83 1017.4
20260505073932 48 350 3.0 9.0 0.00 0.00 0.00 84 1017.3
20260505073427 48 47 4.0 9.0 0.00 0.00 0.00 84 1017.3
20260505072927 48 351 4.0 9.0 0.00 0.00 0.00 85 1017.3
20260505072423 48 20 3.0 6.0 0.00 0.00 0.00 86 1017.4
20260505071923 48 46 1.0 6.0 0.00 0.00 0.00 86 1017.3
20260505071420 48 13 3.0 5.0 0.00 0.00 0.00 87 1017.4
20260505070919 48 13 2.0 4.0 0.00 0.00 0.00 87 1017.3
20260505070415 48 46 2.0 4.0 0.00 0.00 0.00 87 1017.4
20260505065917 47 32 1.0 3.0 0.00 0.00 0.00 88 1017.3
20260505065414 47 210 1.0 6.0 0.00 0.00 0.00 88 1017.3
20260505064908 47 1 3.0 6.0 0.00 0.00 0.00 89 1017.3
20260505064408 47 32 2.0 3.0 0.00 0.00 0.00 89 1017.2
20260505064124 47 23 2.0 8.0 0.00 0.00 0.00 89 1017.2
20260505063359 46 314 4.0 8.0 0.00 0.00 0.00 90 1017.2
20260505062859 46 32 3.0 8.0 0.00 0.00 0.00 90 1017.1
20260505062836 46 257 1.0 4.0 0.00 0.00 0.00 90 1017.1